This is the latest recevied weather packets stored in our database for station/object KD0RII. If no packets are shown the sender has not sent any weather packets the latest 10 day(s).
| Time | Temp. | Humidity | Pressure | Rain* | Wind** | Luminosity | Snow |
|---|---|---|---|---|---|---|---|
| 1777572688 | 20° C | 45% | 1019.2 hPa | 0 mm | - | 580 W/m² | - |
| 1777572387 | 20° C | 43% | 1019.4 hPa | 0 mm | - | 448 W/m² | - |
| 1777572085 | 20.56° C | 46% | 1019.3 hPa | 0 mm | - | 442 W/m² | - |
| 1777571785 | 20.56° C | 44% | 1019.5 hPa | 0 mm | - | 458 W/m² | - |
| 1777571482 | 21.67° C | 41% | 1019.7 hPa | 0 mm | - | 509 W/m² | - |
| 1777571179 | 21.67° C | 41% | 1019.6 hPa | 0 mm | - | 773 W/m² | - |
| 1777570874 | 21.67° C | 43% | 1019.6 hPa | 0 mm | - | 855 W/m² | - |
| 1777570570 | 21.67° C | 44% | 1019.7 hPa | 0 mm | - | 679 W/m² | - |
| 1777570268 | 20.56° C | 49% | 1019.9 hPa | 0 mm | - | 824 W/m² | - |
| 1777569962 | 20° C | 42% | 1019.8 hPa | 0 mm | - | 715 W/m² | - |
| 1777569659 | 20° C | 46% | 1019.9 hPa | 0 mm | - | 679 W/m² | - |
| 1777569354 | 19.44° C | 47% | 1020 hPa | 0 mm | - | 482 W/m² | - |
| 1777569051 | 19.44° C | 49% | 1019.9 hPa | 0 mm | - | 497 W/m² | - |
| 1777568748 | 19.44° C | 46% | 1020.3 hPa | 0 mm | - | 502 W/m² | - |
| 1777568445 | 18.89° C | 49% | 1020.3 hPa | 0 mm | - | 542 W/m² | - |
| 1777568142 | 18.33° C | 49% | 1020.2 hPa | 0 mm | - | 525 W/m² | - |
| 1777567839 | 18.89° C | 46% | 1020.3 hPa | 0 mm | - | 427 W/m² | - |
| 1777567535 | 19.44° C | 48% | 1020.5 hPa | 0 mm | - | 323 W/m² | - |
| 1777567232 | 19.44° C | 47% | 1020.3 hPa | 0 mm | - | 467 W/m² | - |
| 1777566931 | 19.44° C | 51% | 1020.6 hPa | 0 mm | - | 533 W/m² | - |
| 1777566628 | 19.44° C | 51% | 1020.5 hPa | 0 mm | - | 533 W/m² | - |
| 1777566326 | 19.44° C | 46% | 1020.7 hPa | 0 mm | - | 548 W/m² | - |
| 1777566023 | 18.89° C | 51% | 1020.8 hPa | 0 mm | - | 581 W/m² | - |
| 1777565718 | 18.89° C | 53% | 1020.8 hPa | 0 mm | - | 501 W/m² | - |
| 1777565415 | 20° C | 45% | 1020.9 hPa | 0 mm | - | 462 W/m² | - |
* Rain latest hour (hover to see other rain measurements)
** Current wind speed in m/s (hover to see current wind gust speed)